Weather in Kiyasovo

Russia / Udmurt Republic     56°20′45″N   53°07′24″E
temp.,
°C
wind,
m/s
gust,
m/s
humid.,
%
clouds,
%
prec.,
mm/h
press.,
hPa
HPBL,
m
8 march, mon
mon801:00−12s51194100 0.0 1003350
04:00−10s61294100 0.8 1000627
07:00−9sse51295100 0.6 996532
10:00−5s61194100 1.6 994799
13:00−3sw121791100 0.9 9941333
16:00−4wsw8137794 1.1 9961101
19:00−7wsw6148774 0.0 1000553
22:00−12sw349347 0.0 100155
9 march, tue
tue901:00−13ssw129378 0.0 100020
04:00−12wnw239289 0.0 100124
07:00−15wsw499438 0.0 1003146
10:00−11w479342 0.0 1007302
13:00−8wsw359298 0.0 1008398
16:00−8sw359198 0.1 1009451
19:00−12sw3395100 0.1 100935
22:00−16w129766 0.1 101020
10 march, wed
wed1001:00−17nnw1110063 0.0 100820
04:00−15n5109480 0.1 1008283
07:00−18n71294100 0.2 1008396
10:00−19n71293100 0.4 1009428
13:00−17n71284100 0.0 1011538
16:00−15nnw71080100 0.0 1012762
19:00−19nnw6138698 0.0 1014442
22:00−22nnw5139085 0.0 1015317
11 march, thu
thu1101:00−24nw499417 0.0 1015180
04:00−26nw479512 0.0 1017126
07:00−26wnw359615 0.0 101768
10:00−20wnw479449 0.1 1018325
13:00−15wnw5791100 0.1 1017470
16:00−12wnw5992100 0.3 1016561
19:00−12w61191100 0.1 1016411
22:00−9wnw41193100 0.1 1017479
12 march, fri
fri1201:00−11nw51189100 0.0 1018401
04:00−14nw4119198 0.0 1020282
07:00−18wnw48953 0.0 1023144
10:00−14nw59898 0.0 1025364
13:00−9wnw59756 0.0 1026566
16:00−7wnw59773 0.0 1026852
19:00−12wsw498854 0.0 1027173
22:00−14wsw499273 0.0 1028180